Weather History for Spirit of St Louis, MO

Change the Weather History Date:

Friday, November 30, 2012

  Actual Average Record
Temperature  
Mean Temperature 54 °F -  
Max Temperature 66 °F 48 °F 66 °F (1998)
Min Temperature 41 °F 30 °F 19 °F (1999)
Degree Days  
Heating Degree Days 11    
Growing Degree Days 4 (Base 50)    
Moisture  
Dew Point 37 °F    
Average Humidity 60    
Maximum Humidity 89    
Minimum Humidity 42    
Precipitation  
Precipitation 0.00 in - - ()
Sea Level Pressure  
Sea Level Pressure 30.09 in    
Wind  
Wind Speed 6 mph (SW)    
Max Wind Speed 13 mph    
Max Gust Speed -    
Visibility 10 miles    
Events      
Averages and records for this station are not official NWS values.
T = Trace of Precipitation, MM = Missing Value Source: NWS Daily Summary

Daily Weather History Graph

Daily Weather History Graph

Search for Another Location

Airport:

Trip Planner

Search our weather history database for the weather conditions in past years. The results will help you decide how hot, cold, wet, or windy it might be!

Date:

Astronomy

Nov. 30, 2012 Rise Set
Actual Time 7:01 AM CST 4:41 PM CST
Civil Twilight 6:31 AM CST 5:11 PM CST
Nautical Twilight 5:58 AM CST 5:43 PM CST
Astronomical Twilight 5:26 AM CST 6:15 PM CST
Moon 6:36 PM CST (11/30) 8:33 AM CST (11/30)
Length of Visible Light 10h 39m
Length of Day
9h 40m
Waning Gibbous, 96% of the Moon is Illuminated
Nov 30
Waning Gibbous
Dec 6
Last Quarter
Dec 13
New
Dec 19
First Quarter
Dec 28
Full

Hourly Weather History & Observations

Time (CST) Temp. Dew Point Humidity Pressure Visibility Wind Dir Wind Speed Gust Speed Precip Events Conditions
12:54 AM 46.9 °F 30.9 °F 54% 30.12 in 10.0 mi SSW 6.9 mph - N/A   Clear
1:54 AM 45.0 °F 30.9 °F 58% 30.12 in 10.0 mi Calm Calm - N/A   Clear
2:54 AM 48.0 °F 30.9 °F 52% 30.11 in 10.0 mi SW 6.9 mph - N/A   Clear
3:54 AM 48.9 °F 30.9 °F 50% 30.09 in 10.0 mi SSW 8.1 mph - N/A   Clear
4:54 AM 48.9 °F 30.9 °F 50% 30.09 in 10.0 mi SW 6.9 mph - N/A   Clear
5:54 AM 46.9 °F 30.9 °F 54% 30.10 in 10.0 mi SW 6.9 mph - N/A   Clear
6:54 AM 48.0 °F 30.9 °F 52% 30.10 in 10.0 mi SW 8.1 mph - N/A   Clear
7:54 AM 48.9 °F 30.9 °F 50% 30.11 in 10.0 mi WSW 9.2 mph - N/A   Partly Cloudy
8:54 AM 53.1 °F 33.1 °F 47% 30.12 in 10.0 mi SW 11.5 mph - N/A   Partly Cloudy
9:54 AM 57.0 °F 36.0 °F 45% 30.12 in 10.0 mi WSW 9.2 mph - N/A   Clear
10:54 AM 60.1 °F 39.0 °F 46% 30.11 in 10.0 mi WSW 10.4 mph - N/A   Partly Cloudy
11:54 AM 62.1 °F 41.0 °F 46% 30.08 in 10.0 mi WSW 12.7 mph - N/A   Partly Cloudy
12:54 PM 64.0 °F 41.0 °F 43% 30.06 in 10.0 mi West 9.2 mph - N/A   Clear
1:54 PM 66.0 °F 43.0 °F 43% 30.05 in 10.0 mi SW 6.9 mph - N/A   Clear
2:54 PM 66.9 °F 43.0 °F 42% 30.05 in 10.0 mi SSW 6.9 mph - N/A   Clear
3:54 PM 64.9 °F 43.0 °F 45% 30.05 in 10.0 mi South 4.6 mph - N/A   Clear
4:54 PM 54.0 °F 43.0 °F 66% 30.07 in 10.0 mi Calm Calm - N/A   Clear
5:54 PM 50.0 °F 42.1 °F 74% 30.08 in 10.0 mi Calm Calm - N/A   Clear
6:54 PM 45.0 °F 39.0 °F 80% 30.09 in 10.0 mi Calm Calm - N/A   Clear
7:54 PM 44.1 °F 39.9 °F 85% 30.09 in 10.0 mi Calm Calm - N/A   Clear
8:54 PM 42.1 °F 37.9 °F 85% 30.09 in 10.0 mi Calm Calm - N/A   Clear
9:54 PM 43.0 °F 39.0 °F 86% 30.09 in 10.0 mi Calm Calm - N/A   Clear
10:54 PM 42.1 °F 39.0 °F 89% 30.10 in 10.0 mi Calm Calm - N/A   Clear
11:54 PM 41.0 °F 37.9 °F 89% 30.10 in 10.0 mi Calm Calm - N/A   Clear